Showing default

LEMUR 2 KARENDARRELL, 64841

Orbit data source: Space-Track

LEMUR 2 KARENDARRELL, 64841 is an American payload satellite in SSO that was launched on Mon, 23 Jun 2025 UTC via an FALCON 9 launch vehicle from the Air Force Western Test Range (AFWTR). Payload-class satellites include a variety of spacecraft equipped with specific instruments for various scientific and technological missions. These include communications satellites like Starlink; space stations such as the ISS; scientific satellites like the Hubble; Earth observation satellites from companies like Planet Labs, Umbra, and HawkEye 360; GPS; miniature CubeSats for education and research; and military/defense satellites.

Loading next visibility...
Identifier
64841, 2025-135BU
Orbit
SSO
Country
Flag of USUS
Related business
Manufacturer
Spire/Glasgow
Mission
Operational Commercial Com/MetRO
Bus & Motor
CUBESAT 4U, Unknown motor
Mass
5 kg wet, 5 kg dry
Launch date (UTC)
2025-06-23 (8 months ago)
Launch vehicle
FALCON 9
Launch site
Air Force Western Test Range (AFWTR)
Object type
Payload
Rocket body
Debris
Shape & HBR
Box, 0.2 m
Radar Cross Section
0.045 m², Small (<0.1 m²)

Expand to show TLE details & history
Last TLE update: 9 hours ago

TLE from 9 hours ago
0 LEMUR 2 KARENDARRELL
1 64841U 25135BU  26062.53685013  .00013890  00000-0  11698-2 0  9994
2 64841  97.7593 179.0952 0007665 203.0704 157.0175 14.98305203 38189
Epoch: 2026-03-03T12:53Z
TLE epoch observation values (Epoch: 2026-03-03T12:53:03.851Z)
Latitude
-0.00003°
Longitude
-175.48534°
Altitude
580.089 km
Speed
7.568 km/s
True Right ascension
11h 56m 22s
True Declination
0° 00' 00"
Sunlit
Object was in full shadow at epoch
Visualization orbit readout
Latitude
Unknown
Longitude
Unknown
Altitude
Unknown
Speed
Unknown
Apparent Right ascension
Unknown
Apparent Declination
Unknown
Sunlit
N/A
Visualization observer readout
Local Sidereal Time
02:02:14
Azimuth
Unknown
Elevation
Unknown
Doppler factor
Unknown
Orbital elements
Apogee altitude
574.468 km
Perigee altitude
563.818 km
Semi-major axis
6,947.28 km
Eccentricity
0.00077
Inclination
97.7593°
RAAN
179.0952°
Arg. of periapsis
203.0704°
True anomaly
157.05176°
Mean anomaly
157.0175°
Eccentric anomaly
157.03464°
Mean motion
3.74818 °/min
Orbital period
96.05 mins
BSTAR
0.0011698
Loading maneuver chart data...
Computing Atmospheric mass density...
Loading historical data...
Loading historical data...
Loading historical data...
Loading historical data...
Loading historical data...
Loading historical data...
Loading historical data...

Documentation

Showing up to 5 results
|